DateTimeUTC,F1_A11,F1_S11,BsB_S11,BsG_S11,BsR_S11,BbsB_S11,BbsG_S11,BbsR_S11,BaB_A11,BaG_A11,BaR_A11,Tu_S11,T_S11,Uu_S11,U_S11,P_S11,T1_A11
2021-08-01T13:00:00Z,00000200,20000000,,,,,,,-000.28,0000.08,-000.13,19.3,25.7,09.0,06.1,0677.5,31.0
2021-08-01T13:01:00Z,00000200,20000000,,,,,,,0000.22,-000.04,0000.33,19.3,25.7,09.0,06.1,0677.5,31.1
2021-08-01T13:02:00Z,00000200,20000000,,,,,,,0000.07,0000.00,-000.10,19.3,25.7,09.0,06.1,0677.5,31.0
2021-08-01T13:03:00Z,00000200,60000000,,,,,,,0000.79,0000.97,0000.74,19.3,25.7,09.0,06.1,0677.5,31.1
2021-08-01T13:04:00Z,00000200,40000000,0003.57,0001.81,0001.32,0000.49,0000.20,0000.23,0000.63,0000.56,0000.17,19.4,25.6,09.2,06.3,0678.5,31.0
2021-08-01T13:05:00Z,00000200,00000000,0002.63,0001.78,0001.21,0000.60,0000.32,-000.06,0000.61,0000.46,0000.66,19.5,25.6,09.2,06.4,0678.6,31.0
2021-08-01T13:06:00Z,00000200,00000000,0002.91,0001.83,0001.57,0000.74,0000.02,0000.16,0000.51,0000.79,0000.10,19.5,25.5,09.3,06.4,0678.5,31.1
2021-08-01T13:07:00Z,00000200,00000000,0002.81,0001.89,0001.12,0000.97,0000.22,0000.39,0001.02,0000.68,0000.61,19.5,25.6,09.4,06.5,0678.5,31.1
2021-08-01T13:08:00Z,00000200,00000000,0003.62,0001.85,0001.36,0000.51,0000.06,0000.48,0000.92,0000.90,0001.05,19.5,25.6,09.4,06.5,0678.6,31.0
2021-08-01T13:09:00Z,00000200,00000000,0004.04,0002.25,0001.29,0000.57,0000.35,-000.07,0003.15,0002.60,0001.91,19.5,25.6,09.5,06.6,0678.6,31.0
2021-08-01T13:10:00Z,00000200,00000000,0003.96,0002.31,0001.51,0000.57,0000.42,0000.19,0007.04,0006.77,0004.79,19.5,25.6,09.6,06.6,0678.5,31.0
2021-08-01T13:11:00Z,00000200,00000000,0003.92,0002.34,0001.20,0000.91,0000.57,0000.05,0007.58,0006.54,0005.10,19.6,25.6,09.5,06.6,0678.5,31.0
2021-08-01T13:12:00Z,00000200,00000000,0002.90,0001.75,0001.11,0000.26,0000.45,0000.14,0002.99,0002.73,0002.15,19.6,25.6,09.4,06.6,0678.6,31.1
2021-08-01T13:13:00Z,00000200,00000000,0003.49,0002.47,0001.32,0000.66,0000.46,0000.06,0008.58,0007.64,0005.66,19.6,25.6,09.4,06.6,0678.5,31.1
2021-08-01T13:14:00Z,00000200,00000000,0003.35,0002.03,0001.28,0000.40,0000.15,0000.08,0000.87,0001.27,0000.95,19.6,25.6,09.3,06.5,0678.5,31.1
2021-08-01T13:15:00Z,00000200,00000000,0003.47,0002.14,0001.29,0000.52,-000.04,-000.02,0000.62,0000.30,0000.50,19.6,25.6,09.3,06.5,0678.5,31.1
2021-08-01T13:16:00Z,00000200,00000000,0003.23,0001.79,0001.03,0000.67,0000.21,0000.25,0000.69,0000.52,0000.14,19.6,25.6,09.2,06.4,0678.5,31.1
2021-08-01T13:17:00Z,00000200,00000000,0002.58,0001.54,0000.58,0000.26,0000.05,-000.10,0000.75,0000.71,0000.55,19.6,25.6,09.1,06.3,0678.6,31.1
2021-08-01T13:18:00Z,00000200,00000000,0003.28,0001.38,0001.04,-000.08,0000.16,0000.25,0000.53,0000.17,0000.39,19.6,25.6,09.3,06.4,0678.5,31.0
2021-08-01T13:19:00Z,00000200,00000000,0003.12,0002.02,0001.08,0000.86,0000.41,0000.32,0000.88,0000.93,0000.60,19.6,25.6,09.4,06.6,0678.6,31.1
2021-08-01T13:20:00Z,00000200,00000000,0003.76,0002.08,0001.39,0001.15,0000.39,0000.36,0000.53,0000.41,0000.45,19.6,25.6,09.5,06.6,0678.5,31.1
2021-08-01T13:21:00Z,00000200,00000000,0002.99,0001.80,0001.15,0000.74,0000.74,0000.06,0000.84,0000.79,0000.40,19.7,25.6,09.4,06.6,0678.5,31.1
2021-08-01T13:22:00Z,00000200,00000000,0004.22,0002.38,0001.46,0000.72,0000.31,0000.28,0001.01,0001.05,0000.77,19.6,25.6,09.5,06.6,0678.5,31.0
2021-08-01T13:23:00Z,00000200,00000000,0003.58,0002.66,0001.38,0000.92,-000.03,0000.31,0001.04,0000.97,0000.57,19.7,25.6,09.5,06.6,0678.5,31.0
2021-08-01T13:24:00Z,00000200,00000000,0003.11,0002.53,0001.24,0000.11,0000.18,0000.31,0000.70,0000.81,0000.80,19.7,25.6,09.6,06.7,0678.5,31.1
2021-08-01T13:25:00Z,00000200,00000000,0003.49,0001.96,0001.54,0000.53,0000.33,-000.12,0001.01,0000.69,0000.22,19.7,25.6,09.6,06.7,0678.5,31.1
2021-08-01T13:26:00Z,00000200,00000000,0004.11,0002.24,0001.66,0000.87,0000.49,0000.17,0000.51,0000.75,0000.90,19.7,25.6,09.6,06.7,0678.5,31.1
2021-08-01T13:27:00Z,00000200,00000000,0004.62,0002.71,0001.77,0001.07,0000.14,0000.38,0000.60,0000.48,0000.17,19.7,25.7,09.5,06.6,0678.4,31.1
2021-08-01T13:28:00Z,00000200,00000000,0003.84,0002.23,0001.55,0000.83,0000.27,0000.32,0001.31,0000.82,0000.74,19.7,25.7,09.4,06.6,0678.5,31.1
2021-08-01T13:29:00Z,00000200,00000000,0004.35,0002.40,0001.93,0000.50,0000.38,0000.16,0000.68,0000.71,0000.47,19.7,25.7,09.5,06.6,0678.5,31.1
2021-08-01T13:30:00Z,00000200,00000000,0003.73,0002.71,0001.77,0000.03,0000.21,0000.38,0000.69,0000.82,0000.87,19.7,25.7,09.3,06.5,0678.4,31.1
2021-08-01T13:31:00Z,00000200,00000000,0003.33,0002.23,0001.47,0000.70,0000.74,0000.06,0000.61,0000.59,0000.31,19.7,25.7,09.3,06.5,0678.5,31.1
2021-08-01T13:32:00Z,00000200,00000000,0004.04,0002.20,0001.47,0000.20,0000.21,0000.30,0001.06,0000.90,0000.91,19.7,25.7,09.3,06.5,0678.4,31.1
2021-08-01T13:33:00Z,00000200,00000000,0004.38,0002.22,0001.72,-000.12,0000.59,0000.16,0000.64,0000.75,0000.48,19.8,25.7,09.3,06.5,0678.4,31.1
2021-08-01T13:34:00Z,00000200,00000000,0004.49,0002.75,0001.72,0000.69,0000.46,0000.64,0001.14,0000.66,0000.87,19.8,25.7,09.4,06.5,0678.5,31.1
2021-08-01T13:35:00Z,00000200,00000000,0004.07,0002.47,0001.34,0000.83,0000.63,-000.01,0000.77,0000.89,0000.28,19.8,25.7,09.4,06.6,0678.4,31.1
2021-08-01T13:36:00Z,00000200,00000000,0004.95,0002.69,0001.62,0000.54,0000.54,0000.32,0000.85,0000.79,0000.41,19.8,25.7,09.4,06.5,0678.4,31.1
2021-08-01T13:37:00Z,00000200,00000000,0003.61,0002.58,0001.61,0000.41,0000.48,0000.39,0000.91,0000.66,0000.53,19.8,25.7,09.5,06.6,0678.4,31.1
2021-08-01T13:38:00Z,00000200,00000000,0003.22,0002.46,0001.27,0000.44,0000.72,0000.63,0000.60,0000.41,0000.83,19.8,25.7,09.4,06.5,0678.4,31.1
2021-08-01T13:39:00Z,00000200,00000000,0003.47,0002.53,0001.57,0000.09,0000.57,0000.10,0001.09,0001.11,0000.75,19.8,25.7,09.4,06.6,0678.4,31.1
2021-08-01T13:40:00Z,00000200,00000000,0004.36,0002.50,0001.40,0000.32,0000.50,0000.28,0001.28,0001.08,0000.69,19.8,25.7,09.4,06.6,0678.4,31.1
2021-08-01T13:41:00Z,00000200,00000000,0004.29,0002.53,0001.43,0000.95,0000.41,0000.15,0000.98,0001.05,0000.70,19.8,25.7,09.3,06.5,0678.4,31.1
2021-08-01T13:42:00Z,00000200,00000000,0003.90,0002.20,0001.52,0000.71,0000.49,0000.30,0000.61,0000.83,0000.66,19.8,25.8,09.4,06.6,0678.4,31.1
2021-08-01T13:43:00Z,00000200,00000000,0003.82,0002.64,0001.34,0000.91,0000.29,0000.48,0001.16,0000.42,0000.87,19.8,25.8,09.5,06.6,0678.5,31.1
2021-08-01T13:44:00Z,00000200,00000000,0003.85,0002.78,0001.71,0000.96,0000.31,0000.25,0000.66,0001.03,0000.36,19.8,25.8,09.5,06.7,0678.4,31.1
2021-08-01T13:45:00Z,00000200,00000000,0004.73,0002.66,0001.50,0000.98,0000.42,0000.25,0000.61,0000.85,0000.40,19.9,25.7,09.5,06.6,0678.4,31.1
2021-08-01T13:46:00Z,00000200,00000000,0004.41,0002.45,0001.58,-000.09,0000.51,0000.35,0000.76,0000.58,0000.59,19.9,25.8,09.2,06.5,0678.4,31.1
2021-08-01T13:47:00Z,00000200,00000000,0004.07,0002.55,0001.39,0000.62,0000.19,0000.35,0000.65,0000.51,0000.32,19.9,25.8,09.3,06.5,0678.4,31.1
2021-08-01T13:48:00Z,00000200,00000000,0004.32,0002.31,0001.49,0000.98,0000.16,0000.35,0000.73,0000.70,0000.50,19.9,25.8,09.2,06.5,0678.4,31.1
2021-08-01T13:49:00Z,00000200,00000000,0003.98,0002.33,0001.43,0000.51,0000.37,0000.46,0000.68,0000.98,0000.55,19.9,25.8,09.2,06.5,0678.4,31.1
2021-08-01T13:50:00Z,00000200,00000000,0004.52,0002.47,0001.53,0000.84,0000.31,0000.25,0000.88,0000.77,0000.73,19.9,25.8,09.4,06.5,0678.5,31.1
2021-08-01T13:51:00Z,00000200,00010000,0004.55,0002.68,0001.42,0000.54,0000.36,0000.36,0001.13,0000.58,0000.47,19.9,25.8,09.4,06.6,0678.4,31.1
2021-08-01T13:52:00Z,00000200,00000000,0004.29,0002.60,0001.61,0000.05,0000.35,-000.00,0000.92,0001.01,0000.90,19.9,25.8,09.3,06.5,0678.5,31.1
2021-08-01T13:53:00Z,00000200,00000000,0004.51,0002.59,0001.55,0000.74,0000.39,0000.39,0001.03,0001.01,0000.83,19.9,25.8,09.5,06.6,0678.5,31.1
2021-08-01T13:54:00Z,00000200,00000000,0003.60,0003.07,0001.93,0000.37,0000.49,0000.41,0000.88,0000.51,0000.41,19.9,25.8,09.4,06.5,0678.4,31.1
2021-08-01T13:55:00Z,00000200,00000000,0003.90,0002.70,0002.17,0000.90,0000.29,0000.42,0000.80,0000.76,0000.50,19.9,25.8,09.3,06.5,0678.4,31.1
2021-08-01T13:56:00Z,00000200,00000000,0004.97,0002.73,0001.89,0000.25,0000.19,0000.04,0000.86,0001.04,0000.53,19.9,25.8,09.3,06.5,0678.4,31.1
2021-08-01T13:57:00Z,00000200,40000000,,,,,,,0000.21,0000.12,0000.91,20.0,25.8,09.5,06.7,0678.4,31.1
2021-08-01T13:58:00Z,00000200,60000000,,,,,,,0000.01,0000.06,-000.35,19.8,25.9,09.5,06.5,0677.4,31.1
2021-08-01T13:59:00Z,00000200,20000000,,,,,,,0000.19,-000.18,-000.11,19.8,26.0,09.5,06.5,0677.4,31.1
